• In Austria
  • List of Countries
  • For 7 days
  • Water Temperature
  • Satellite Maps
  • Weather Map
  • News
  • Weather Widgets
  • user-avatar
    Login

    Hourly Weather Houston

    Today, 21 September, Friday

    Time Temperature Precipitation Wind Pressure Humidity
    00:00 +29°C° 0.2 mm 3 mps 759 mmHg 85%
    01:00 +29°C° 0.5 mm 3 mps 759 mmHg 85%
    02:00 +29°C° 0.5 mm 3 mps 759 mmHg 85%
    03:00 +29°C° 0.5 mm 3 mps 759 mmHg 86%
    04:00 +29°C° 0.3 mm 2 mps 759 mmHg 86%
    05:00 +28°C° 0.3 mm 2 mps 759 mmHg 87%
    06:00 +28°C° 0.3 mm 2 mps 759 mmHg 87%
    07:00 +29°C° 0.4 mm 2 mps 759 mmHg 85%
    08:00 +30°C° 0.4 mm 3 mps 760 mmHg 83%
    09:00 +30°C° 0.4 mm 3 mps 760 mmHg 81%
    10:00 +31°C° 0.4 mm 3 mps 760 mmHg 79%
    11:00 +31°C° 0.4 mm 3 mps 760 mmHg 76%
    12:00 +33°C° 0.4 mm 4 mps 760 mmHg 74%
    13:00 +33°C° 0.1 mm 4 mps 759 mmHg 73%
    14:00 +33°C° 0.1 mm 4 mps 759 mmHg 71%
    15:00 +33°C° 0.1 mm 4 mps 758 mmHg 70%
    16:00 +33°C° 0 mm 4 mps 758 mmHg 73%
    17:00 +32°C° 0 mm 4 mps 758 mmHg 76%
    18:00 +30°C° 0 mm 3 mps 758 mmHg 78%
    19:00 +30°C° 0 mm 3 mps 759 mmHg 79%
    20:00 +30°C° 0 mm 3 mps 759 mmHg 81%
    21:00 +29°C° 0 mm 3 mps 760 mmHg 82%
    22:00 +29°C° 0.1 mm 3 mps 760 mmHg 83%
    23:00 +29°C° 0.1 mm 2 mps 760 mmHg 84%

    Tomorrow, 22 September, Saturday

    Time Temperature Precipitation Wind Pressure Humidity
    00:00 +28°C° 0.1 mm 2 mps 759 mmHg 86%
    01:00 +28°C° 0.3 mm 2 mps 759 mmHg 87%
    02:00 +28°C° 0.3 mm 2 mps 759 mmHg 87%
    03:00 +28°C° 0.3 mm 2 mps 759 mmHg 88%
    04:00 +28°C° 1.1 mm 2 mps 759 mmHg 88%
    05:00 +28°C° 1.1 mm 1 mps 759 mmHg 88%
    06:00 +28°C° 1.1 mm 1 mps 759 mmHg 88%
    07:00 +28°C° 1.4 mm 1 mps 759 mmHg 84%
    08:00 +29°C° 1.4 mm 2 mps 759 mmHg 80%
    09:00 +30°C° 1.4 mm 2 mps 760 mmHg 76%
    10:00 +31°C° 0.6 mm 2 mps 760 mmHg 71%
    11:00 +32°C° 0.6 mm 2 mps 759 mmHg 67%
    12:00 +34°C° 0.6 mm 2 mps 759 mmHg 63%
    13:00 +34°C° 0.3 mm 2 mps 759 mmHg 62%
    14:00 +34°C° 0.3 mm 2 mps 758 mmHg 61%
    15:00 +35°C° 0.3 mm 2 mps 758 mmHg 61%
    16:00 +34°C° 0.6 mm 2 mps 758 mmHg 65%
    17:00 +32°C° 0.6 mm 2 mps 758 mmHg 68%
    18:00 +31°C° 0.6 mm 1 mps 757 mmHg 72%
    19:00 +30°C° 0.5 mm 1 mps 758 mmHg 74%
    20:00 +30°C° 0.5 mm 1 mps 758 mmHg 76%
    21:00 +29°C° 0.5 mm 1 mps 759 mmHg 79%
    22:00 +29°C° 0.8 mm 2 mps 759 mmHg 80%
    23:00 +28°C° 0.8 mm 2 mps 759 mmHg 82%

    Day after tomorrow, 23 September, Sunday

    Time Temperature Precipitation Wind Pressure Humidity
    00:00 +28°C° 0.8 mm 2 mps 758 mmHg 83%
    01:00 +28°C° 1.5 mm 2 mps 758 mmHg 84%
    02:00 +27°C° 1.5 mm 2 mps 758 mmHg 85%
    03:00 +27°C° 1.5 mm 2 mps 758 mmHg 85%
    04:00 +27°C° 0.1 mm 1 mps 758 mmHg 86%
    05:00 +27°C° 0.1 mm 1 mps 758 mmHg 86%
    06:00 +27°C° 0.1 mm 1 mps 758 mmHg 86%
    07:00 +27°C° 0 mm 1 mps 759 mmHg 84%
    08:00 +28°C° 0 mm 1 mps 759 mmHg 82%
    09:00 +28°C° 0 mm 1 mps 759 mmHg 80%
    10:00 +29°C° 0.1 mm 1 mps 759 mmHg 78%
    11:00 +30°C° 0.1 mm 1 mps 759 mmHg 75%
    12:00 +30°C° 0.1 mm 1 mps 759 mmHg 72%
    13:00 +31°C° 0 mm 1 mps 758 mmHg 71%
    14:00 +31°C° 0 mm 2 mps 758 mmHg 70%
    15:00 +31°C° 0 mm 2 mps 757 mmHg 68%
    16:00 +31°C° 0 mm 1 mps 757 mmHg 70%
    17:00 +30°C° 0 mm 1 mps 757 mmHg 71%
    18:00 +30°C° 0 mm 1 mps 757 mmHg 72%
    19:00 +29°C° 0 mm 1 mps 757 mmHg 73%
    20:00 +29°C° 0 mm 1 mps 758 mmHg 74%
    21:00 +28°C° 0 mm 1 mps 758 mmHg 75%
    22:00 +28°C° 0.1 mm 1 mps 758 mmHg 76%
    23:00 +28°C° 0.1 mm 2 mps 758 mmHg 78%

    24 September, Monday

    Time Temperature Precipitation Wind Pressure Humidity
    00:00 +28°C° 0.1 mm 2 mps 758 mmHg 80%
    01:00 +28°C° 0.1 mm 2 mps 758 mmHg 81%
    02:00 +27°C° 0.1 mm 2 mps 758 mmHg 83%
    03:00 +27°C° 0.1 mm 1 mps 758 mmHg 85%
    04:00 +27°C° 0 mm 1 mps 758 mmHg 86%
    05:00 +27°C° 0 mm 1 mps 758 mmHg 87%
    06:00 +27°C° 0 mm 1 mps 758 mmHg 88%
    07:00 +28°C° 0.1 mm 1 mps 759 mmHg 83%
    08:00 +29°C° 0.1 mm 1 mps 759 mmHg 79%
    09:00 +30°C° 0.1 mm 1 mps 759 mmHg 75%
    10:00 +31°C° 0 mm 2 mps 759 mmHg 70%
    11:00 +32°C° 0 mm 2 mps 759 mmHg 64%
    12:00 +35°C° 0 mm 2 mps 759 mmHg 59%
    13:00 +35°C° 0.6 mm 3 mps 758 mmHg 60%
    14:00 +35°C° 0.6 mm 3 mps 757 mmHg 61%
    15:00 +35°C° 0.6 mm 3 mps 757 mmHg 62%
    16:00 +34°C° 0.7 mm 3 mps 757 mmHg 66%
    17:00 +33°C° 0.7 mm 3 mps 757 mmHg 71%
    18:00 +30°C° 0.7 mm 3 mps 757 mmHg 75%
    19:00 +30°C° 0 mm 3 mps 758 mmHg 77%
    20:00 +29°C° 0 mm 3 mps 758 mmHg 79%
    21:00 +29°C° 0 mm 3 mps 759 mmHg 81%
    22:00 +28°C° 0 mm 3 mps 759 mmHg 82%
    23:00 +28°C° 0 mm 3 mps 759 mmHg 83%

    25 September, Tuesday

    Time Temperature Precipitation Wind Pressure Humidity
    00:00 +28°C° 0 mm 3 mps 759 mmHg 84%
    01:00 +28°C° 0 mm 2 mps 758 mmHg 84%
    02:00 +28°C° 0 mm 2 mps 758 mmHg 85%
    03:00 +28°C° 0 mm 2 mps 758 mmHg 86%
    04:00 +28°C° 0 mm 2 mps 758 mmHg 86%
    05:00 +27°C° 0 mm 2 mps 759 mmHg 86%
    06:00 +27°C° 0 mm 1 mps 759 mmHg 86%
    07:00 +29°C° 0 mm 2 mps 759 mmHg 82%
    08:00 +30°C° 0 mm 2 mps 760 mmHg 77%
    09:00 +31°C° 0 mm 2 mps 760 mmHg 73%
    10:00 +32°C° 0.4 mm 2 mps 760 mmHg 70%
    11:00 +32°C° 0.4 mm 2 mps 760 mmHg 67%
    12:00 +34°C° 0.4 mm 3 mps 759 mmHg 64%
    13:00 +34°C° 1.8 mm 3 mps 759 mmHg 64%
    14:00 +34°C° 1.8 mm 3 mps 758 mmHg 65%
    15:00 +34°C° 1.8 mm 3 mps 758 mmHg 65%
    16:00 +33°C° 0.4 mm 3 mps 758 mmHg 69%
    17:00 +31°C° 0.4 mm 3 mps 758 mmHg 72%
    18:00 +30°C° 0.4 mm 3 mps 759 mmHg 76%
    19:00 +30°C° 0 mm 3 mps 759 mmHg 78%
    20:00 +29°C° 0 mm 2 mps 760 mmHg 79%
    21:00 +29°C° 0 mm 2 mps 760 mmHg 81%
    22:00 +28°C° 0 mm 2 mps 760 mmHg 82%
    23:00 +28°C° 0 mm 2 mps 760 mmHg 84%

    26 September, Wednesday

    Time Temperature Precipitation Wind Pressure Humidity
    00:00 +28°C° 0 mm 2 mps 759 mmHg 85%
    01:00 +28°C° 0 mm 2 mps 759 mmHg 86%
    02:00 +27°C° 0 mm 1 mps 759 mmHg 87%
    03:00 +27°C° 0 mm 1 mps 759 mmHg 88%
    04:00 +27°C° 0.2 mm 1 mps 759 mmHg 89%
    05:00 +27°C° 0.2 mm 1 mps 759 mmHg 89%
    06:00 +27°C° 0.2 mm 1 mps 760 mmHg 90%
    07:00 +28°C° 0.2 mm 1 mps 760 mmHg 85%
    08:00 +29°C° 0.2 mm 1 mps 760 mmHg 80%
    09:00 +30°C° 0.2 mm 1 mps 760 mmHg 75%
    10:00 +31°C° 0.1 mm 1 mps 760 mmHg 69%
    11:00 +33°C° 0.1 mm 1 mps 760 mmHg 63%
    12:00 +34°C° 0.1 mm 1 mps 760 mmHg 57%
    13:00 +34°C° 0 mm 1 mps 759 mmHg 55%
    14:00 +34°C° 0 mm 1 mps 759 mmHg 53%
    15:00 +35°C° 0 mm 1 mps 758 mmHg 51%
    16:00 +33°C° 0 mm 1 mps 758 mmHg 57%
    17:00 +32°C° 0 mm 2 mps 758 mmHg 63%
    18:00 +31°C° 0 mm 3 mps 758 mmHg 69%
    19:00 +30°C° 0 mm 3 mps 758 mmHg 72%
    20:00 +30°C° 0 mm 3 mps 759 mmHg 75%
    21:00 +29°C° 0 mm 3 mps 759 mmHg 78%
    22:00 +29°C° 0 mm 2 mps 759 mmHg 79%
    23:00 +28°C° 0 mm 2 mps 759 mmHg 81%
    Show more